Location: Dentlein
(49.1477°N, 10.4231°E)
Time: 01:54:59
(UTC+00:00)

SL-08 R/B - Pass Details

Date: 23 May 2024
Orbit: 945 x 993 km, 83.0° (Epoch: 19 June)

Event Time Altitude Azimuth Distance (km) Brightness Sun altitude
Exits shadow 00:44:07 28° 196° (SSW) 1,745 5.2 -17.5°
Maximum altitude 00:47:38 78° 280° (W) 988 4.5 -17.2°
Drops below altitude 10° 00:53:49 10° 7° (N) 2,696 8.0 -16.8°
Sets 00:56:19 0° 9° (N) 3,640 9.0 -16.7°
